Content
SEND FEEDBACK

Daily
Averages
Monthly
Summary
United States of America

NORTHCREST, TEXAS


Home > North America > United States > Texas
Elevation: 153 meters     Latitude: 31 37N     Longitude: 097 13W

WEATHER
 
SELECT A DAY
Number of Records: 200,496;   Date Range: 1/1/95 - 7/29/14
 
SHARE

PRINT THIS DATA

[ ← Previous Day ]
WEATHER ALMANAC - 31 JANUARY, 2013
[ Next Day → ]
[ °F ]   °C
Weather ElementAverageHighLow
Temperature9.9 °C20.6 °C (1:51 pm)-1.1 °C (4:51 am)
Dewpoint-5.2 °C-2.2 °C (10:51 pm)-8.9 °C (1:51 pm)
Humidity40.9 %72 % (4:51 am)13 % (1:51 pm)
Barometer1022.7 hPa1024.4 hPa (9:51 am)1020.7 hPa (2:51 pm)
Wind Speed16.7 km/h29.6 km/h (1:51 pm)
Wind Gust37 km/h (1:51 pm)
Weather ElementAverage
Visibility16.1 km
Wind DirectionSSW (215.7 °)

Weather ElementTotal
Precipitation---
Heating Degree Days8.6 (Base 18.3)
Averaged from 23 records on 31 January, 2013
WEATHER CONDITIONS BREAKOUT
WIND DIRECTION BREAKOUT
WEATHER BY HOUR - 31 JANUARY, 2013
[ °F ]   °C
Local TimeTemperatureDewpointHumidityBarometerVisibilityWind DirectionWind SpeedGust SpeedPrecipitationEventsConditions
1:51 AM1.7 °C-3.9 °C67 %1022.4 hPa16.1 kmSSW (210°)14.8 km/hClear
2:51 AM1.7 °C-5 °C61 %1022.4 hPa16.1 kmSSW (210°)14.8 km/hClear
3:51 AM0 °C-5 °C69 %1022.4 hPa16.1 kmSSW (210°)13 km/hClear
4:51 AM-1.1 °C-5.6 °C72 %1021.7 hPa16.1 kmSouth (170°)5.6 km/hClear
5:51 AM-0.6 °C-5.6 °C69 %1022 hPa16.1 kmSouth (190°)9.3 km/hClear
6:51 AM1.1 °C-4.4 °C67 %1022.4 hPa16.1 kmSSW (210°)16.7 km/hClear
7:51 AM2.2 °C-4.4 °C62 %1023.4 hPa16.1 kmSSW (210°)11.1 km/hClear
8:51 AM6.1 °C-4.4 °C47 %1024 hPa16.1 kmSW (220°)22.2 km/hClear
9:51 AM11.1 °C-5 °C32 %1024.4 hPa16.1 kmWSW (240°)18.5 km/hClear
10:51 AM15.6 °C-7.2 °C20 %1024.4 hPa16.1 kmWSW (250°)25.9 km/hClear
11:51 AM17.8 °C-7.2 °C18 %1023.7 hPa16.1 kmSW (220°)20.4 km/h33.3 km/hClear
12:51 PM19.4 °C-8.3 °C15 %1022.7 hPa16.1 kmSW (230°)22.2 km/hClear
1:51 PM20.6 °C-8.9 °C13 %1021.7 hPa16.1 kmSW (230°)29.6 km/h37 km/hClear
2:51 PM20.6 °C-7.8 °C14 %1020.7 hPa16.1 kmWSW (240°)29.6 km/hClear
3:51 PM20.6 °C-8.3 °C14 %1020.7 hPa16.1 kmSW (220°)29.6 km/h37 km/hClear
4:51 PM19.4 °C-6.7 °C17 %1020.7 hPa16.1 kmSSW (210°)18.5 km/hClear
5:51 PM15.6 °C-4.4 °C25 %1020.7 hPa16.1 kmSSW (200°)11.1 km/hClear
6:51 PM12.8 °C-2.8 °C34 %1021.7 hPa16.1 kmSouth (180°)9.3 km/hClear
7:51 PM8.9 °C-2.8 °C44 %1023 hPa16.1 kmSouth (190°)14.8 km/hClear
8:51 PM11.1 °C-3.3 °C37 %1023.4 hPa16.1 kmSSW (200°)16.7 km/hClear
9:51 PM6.7 °C-2.8 °C51 %1023.7 hPa16.1 kmSouth (190°)11.1 km/hClear
10:51 PM8.9 °C-2.2 °C46 %1023.7 hPa16.1 kmSW (220°)14.8 km/hClear
11:51 PM7.8 °C-2.8 °C47 %1024.4 hPa16.1 kmNW (310°)5.6 km/hClear
Hourly data recorded from KACT, located 0 kilometers away from Northcrest, Texas







STORIES FROM OUR PARTNERS